Theta_e
340 341 343 343 345 347 347 344 342 342 341 339 341 340 337 336 336 334 336 340 343 347 342 341 341 339 338 338 339 340 336 337 338 338 338 342 344 345 346 346 347 348 349
338 340 339 341 343 345 346 344 342 342 340 339 339 340 338 338 338 337 335 336 339 341 340 338 339 338 339 339 340 340 343 339 340 341 341 342 342 342 344 343 343 344 345
339 340 340 340 342 344 344 343 340 339 337 334 332 331 331 330 332 334 337 337 338 339 341 340 339 340 343 342 341 343 343 342 344 342 341 342 339 342 343 343 342 343 343
340 341 342 341 344 344 342 339 335 331 330 329 328 327 327 326 326 326 330 328 330 337 338 339 338 339 342 344 344 344 345 343 342 342 342 342 340 340 341 342 341 341 341
341 342 344 342 340 338 337 334 329 330 326 325 324 325 323 322 323 322 325 330 329 334 334 329 329 329 331 333 335 337 342 343 340 340 342 341 341 340 340 340 339 339 338
343 341 340 338 336 335 332 329 327 324 324 322 322 321 321 320 320 322 326 324 325 324 324 324 324 323 328 331 333 335 335 335 337 341 339 338 338 338 337 336 335 334 333
342 339 336 334 333 332 329 327 326 325 322 323 322 323 323 323 326 328 324 320 320 321 322 322 320 320 321 326 333 333 335 336 337 335 333 332 328 328 329 329 329 330 330
340 337 334 332 331 327 326 326 326 323 321 320 320 318 317 321 324 324 322 319 318 318 318 319 320 320 321 324 328 328 328 329 330 330 329 330 328 329 329 329 330 329 329
339 336 334 330 328 327 325 325 324 322 319 324 323 322 317 315 319 322 320 316 317 317 317 318 318 318 321 322 322 323 324 325 327 327 326 326 326 326 327 328 328 328 328
336 335 333 330 327 325 325 326 328 325 324 322 322 319 319 319 316 313 315 313 317 316 317 317 317 317 319 318 319 320 321 322 324 324 324 324 324 325 325 326 326 326 326
335 332 330 327 325 325 324 327 325 323 322 319 318 315 313 312 312 310 308 310 315 316 316 316 316 315 317 316 316 318 319 319 319 319 319 320 321 323 323 323 324 325 326
329 329 328 325 325 326 326 324 322 320 318 317 315 315 314 313 312 311 309 310 309 312 314 314 315 314 316 314 316 317 317 318 317 316 317 318 319 319 320 320 321 323 326
327 326 326 325 324 323 322 321 319 318 317 316 316 316 315 314 314 312 310 308 307 310 311 313 313 314 315 313 313 315 317 315 316 316 316 316 316 317 318 318 319 320 321
327 326 323 321 320 320 319 319 318 317 317 315 314 313 314 313 313 312 310 308 305 306 308 309 311 314 314 312 314 314 313 313 314 314 315 314 313 314 314 315 315 316 316
324 321 320 318 316 315 314 313 311 311 311 310 310 310 310 310 310 309 309 308 306 302 304 309 307 313 311 311 312 313 312 312 311 313 312 312 312 311 311 311 312 313 314
320 317 314 312 310 309 308 307 306 307 306 305 305 306 307 308 309 309 309 309 308 306 302 307 308 309 310 309 310 311 309 308 307 309 309 310 310 311 310 309 310 311 312
313 310 308 307 305 304 305 305 305 304 303 303 304 304 306 308 306 305 305 305 305 305 301 303 306 308 307 307 308 305 304 305 306 306 307 309 309 309 308 309 309 309 309
307 305 304 303 302 301 301 301 301 301 302 303 304 305 306 305 303 302 302 302 301 302 300 299 303 305 305 307 305 302 301 300 301 302 304 305 305 305 307 307 308 308 306
302 301 301 300 299 300 300 300 300 301 303 303 305 305 303 303 301 299 300 299 299 301 301 299 299 303 302 302 300 300 300 300 299 301 300 301 302 303 302 302 303 303 303
298 297 297 297 298 299 299 299 300 301 301 302 304 305 303 301 299 298 298 298 299 298 299 299 297 296 296 299 298 296 294 297 295 296 298 300 299 299 299 300 301 303 304
297 296 295 295 296 297 299 297 298 298 298 299 300 303 302 301 300 299 298 298 298 296 296 295 293 293 293 293 292 293 292 292 293 297 295 295 296 297 298 299 301 302 303
293 293 292 292 293 294 296 297 295 295 296 297 297 298 300 299 298 298 298 299 298 296 294 292 290 289 291 292 292 291 290 288 286 296 291 291 295 295 297 300 300 301 300
291 290 290 291 291 293 294 295 294 294 295 296 297 297 297 296 296 296 296 296 294 294 294 294 289 289 290 291 291 289 289 288 287 289 290 289 294 295 298 298 297 298 300
288 288 288 289 289 292 293 293 292 292 292 293 294 295 294 294 295 295 293 291 290 290 292 292 290 290 292 293 292 291 290 289 290 291 292 286 294 294 295 296 298 300 300
288 288 288 287 287 288 292 292 290 291 291 291 292 295 294 292 293 292 290 288 288 288 291 291 290 290 291 291 292 292 288 287 286 288 290 289 290 289 294 293 296 299 298
288 287 286 286 289 287 292 292 290 290 290 289 291 291 293 292 291 291 289 287 285 286 287 287 287 288 289 289 291 291 289 286 286 286 290 288 288 289 286 293 295 297 298
Wind_Speed
5 4 3 2 3 3 3 2 3 2 3 2 1 1 1 2 3 2 2 9 8 7 7 5 5 4 2 5 10 8 1 10 12 12 15 20 12 10 11 9 9 10 12
6 5 3 2 3 3 3 2 2 2 1 1 0 2 3 3 3 4 3 3 6 2 2 2 1 3 6 8 11 11 12 16 14 15 19 18 12 9 7 8 9 11 9
8 5 3 3 3 3 4 2 2 2 3 2 2 3 3 4 4 4 4 3 3 6 4 6 8 11 12 13 11 16 14 14 14 15 13 13 10 10 9 8 9 9 10
7 5 3 3 3 2 2 3 2 3 2 2 1 2 3 4 5 4 3 3 3 2 6 12 11 12 13 17 17 18 17 13 13 12 9 8 10 8 7 6 8 7 8
6 5 3 3 4 3 3 3 2 2 1 1 2 3 3 3 4 3 4 5 5 5 4 8 14 15 16 16 14 13 13 10 10 10 7 7 7 8 8 7 6 7 8
6 5 3 2 4 4 4 2 2 1 2 2 2 3 3 2 2 1 5 6 6 6 6 7 7 8 16 17 17 17 16 15 14 10 11 12 12 9 8 9 9 10 10
6 6 4 4 3 4 3 2 2 3 3 3 2 2 1 2 4 4 5 5 6 6 6 5 5 5 6 14 16 19 19 17 15 14 12 10 10 11 11 11 12 13 13
7 5 6 5 5 4 4 2 3 2 2 4 3 2 3 2 2 3 4 5 5 4 7 7 6 8 7 6 10 16 18 18 16 16 15 13 13 14 15 16 16 16 16
7 7 6 5 5 4 4 3 2 3 3 4 4 2 1 1 3 1 2 2 5 4 5 6 6 8 6 6 9 11 18 18 17 18 17 15 16 17 18 19 20 19 18
8 8 5 6 6 5 5 3 2 3 3 3 2 3 4 1 1 4 2 2 5 4 5 5 4 6 4 6 12 14 18 18 19 19 18 18 19 19 19 20 21 20 20
6 8 6 7 7 5 4 4 4 5 3 3 1 1 2 3 2 0 4 4 4 4 3 3 4 5 3 7 7 10 17 17 17 18 19 19 19 19 20 20 21 21 21
5 7 7 7 6 6 6 5 5 6 5 5 3 3 2 1 2 1 3 4 6 3 6 3 3 4 3 7 14 19 19 16 18 19 20 20 20 20 20 21 21 22 22
5 6 8 8 6 6 6 5 5 5 4 4 3 2 1 1 0 1 2 4 4 6 3 4 3 2 4 7 8 15 18 18 17 19 20 21 21 21 21 22 22 22 21
6 8 9 9 8 7 7 6 5 5 6 5 7 4 3 3 1 1 2 3 6 3 5 6 2 2 4 7 11 18 11 17 18 20 17 19 20 21 21 22 22 22 22
7 8 10 11 10 10 9 8 7 7 6 6 6 5 3 3 3 3 3 3 4 8 9 8 5 4 7 8 11 12 12 16 24 19 19 20 20 21 21 21 21 19 19
9 11 12 12 11 10 9 8 6 6 7 4 4 6 5 4 5 4 4 4 3 5 6 8 9 8 9 8 10 11 13 23 21 22 24 24 23 22 22 22 20 18 20
11 13 11 12 11 11 8 8 6 6 6 5 7 8 7 6 5 6 6 5 5 6 8 9 10 9 8 10 9 9 12 12 12 22 26 25 24 25 25 23 22 21 22
12 11 12 13 11 10 8 8 7 7 8 8 8 8 8 6 8 7 6 7 6 8 7 11 9 8 11 12 11 14 11 11 12 20 26 27 26 24 23 22 24 21 24
13 12 12 11 11 9 8 8 8 8 7 7 7 9 8 8 7 7 7 8 7 7 7 6 7 9 9 9 12 11 12 11 11 22 24 22 21 21 26 27 25 24 21
14 12 11 11 11 10 10 8 8 7 7 7 7 7 7 7 7 8 7 8 8 8 8 7 8 8 9 10 10 12 14 10 14 13 15 13 23 24 24 23 23 21 17
12 12 12 11 10 10 8 8 7 7 7 8 8 6 6 9 12 9 6 8 8 7 7 8 9 9 10 11 12 11 12 14 15 8 11 11 12 11 11 16 16 17 17
12 12 12 12 11 8 14 13 7 6 7 8 8 8 6 9 12 15 14 14 12 10 10 9 9 11 13 11 10 11 11 11 11 5 15 16 11 10 11 10 18 19 19
12 13 12 11 11 9 14 11 11 5 7 7 6 6 7 7 9 9 11 13 14 16 15 11 12 11 12 13 13 14 12 12 11 13 13 14 11 12 11 13 20 19 16
12 10 10 10 9 9 14 11 11 7 7 6 7 8 8 9 11 10 9 11 12 12 12 10 11 11 11 13 12 11 12 13 12 8 9 7 10 13 13 10 15 13 16
11 11 9 9 9 8 12 12 8 6 8 9 9 10 9 11 13 12 11 12 12 12 14 17 17 17 16 17 16 9 9 10 11 11 4 5 8 14 12 9 7 15 21
11 9 10 7 12 8 13 12 9 6 8 6 9 11 17 13 15 15 11 12 13 14 14 16 14 14 14 14 17 11 9 10 10 6 3 7 7 6 9 5 9 8 11
Wind_Direction
183 176 210 178 188 187 230 205 208 212 239 262 319 154 56 348 350 5 339 347 8 30 54 74 77 73 13 296 278 278 260 306 280 302 288 291 289 319 352 325 298 305 288
167 188 181 202 196 197 219 206 225 220 226 237 88 5 348 340 336 339 328 328 356 334 352 19 359 268 268 294 287 280 233 235 249 253 254 263 302 311 314 288 291 282 288
160 169 162 202 215 204 218 175 64 55 101 90 53 2 335 327 334 338 338 340 326 329 306 305 320 297 296 295 299 278 269 261 257 267 264 255 248 254 267 283 283 298 289
160 159 157 216 194 175 151 106 98 86 78 54 340 314 315 319 321 343 353 343 322 334 8 350 354 354 334 306 297 310 290 282 284 282 287 281 270 257 270 285 285 303 308
158 134 163 199 150 121 116 119 84 103 101 44 309 308 319 326 349 351 5 29 37 31 13 17 18 8 356 351 346 335 338 337 337 323 314 306 317 314 318 321 316 294 300
136 134 129 159 101 105 96 95 113 69 73 27 313 325 316 343 350 49 70 51 39 38 22 16 12 3 5 359 357 350 337 328 327 335 23 19 16 360 346 325 325 315 317
144 142 114 111 113 103 127 138 97 60 40 18 4 357 21 48 87 85 79 47 41 29 28 22 16 19 3 3 11 24 18 10 13 24 24 16 360 343 330 316 312 308 305
116 109 135 123 110 101 117 100 75 113 72 23 69 32 358 342 44 59 89 49 26 13 19 20 29 20 11 5 18 12 6 359 355 354 349 346 335 326 317 308 300 297 296
120 114 124 119 112 131 117 90 96 90 107 45 48 101 357 298 310 50 67 46 12 20 13 10 5 11 18 19 360 355 351 344 339 336 330 325 320 315 309 304 295 293 292
111 119 136 124 129 113 100 104 115 97 104 91 43 30 49 10 323 322 352 331 347 356 343 353 341 351 5 13 352 344 341 335 329 327 324 320 314 310 307 304 301 299 296
124 112 128 121 110 105 114 117 93 76 72 102 92 60 50 43 59 47 295 318 322 313 308 314 306 347 354 357 339 333 334 328 331 325 321 319 314 308 309 306 300 297 290
107 114 117 106 103 111 107 103 90 84 88 94 103 90 81 41 355 334 285 300 307 308 299 265 289 336 339 349 346 334 328 327 324 321 319 317 312 310 308 303 302 299 295
130 120 110 100 99 101 97 92 90 89 81 85 73 82 82 88 151 278 272 300 308 323 302 279 299 336 336 338 326 321 318 321 318 316 312 312 311 308 305 301 301 296 299
119 117 107 105 96 87 85 81 82 83 80 75 67 56 72 58 28 334 299 308 316 290 308 300 271 293 318 324 319 323 315 311 310 308 307 306 308 306 305 303 302 299 296
114 104 99 91 79 76 76 77 69 68 68 61 59 52 43 19 3 341 312 303 296 300 302 326 310 312 315 320 317 325 317 308 311 307 304 299 301 300 302 304 299 299 296
110 102 87 85 81 74 70 70 64 53 60 40 38 39 32 5 3 7 3 349 305 303 302 320 314 317 318 318 323 325 317 310 309 304 304 300 302 300 300 301 299 298 299
103 92 95 89 79 72 63 68 65 52 61 41 32 35 26 25 24 13 6 351 334 325 304 312 302 315 317 320 321 317 309 307 305 307 303 303 301 304 302 299 298 299 304
83 94 89 82 80 73 61 62 63 50 46 37 29 42 43 35 26 9 352 340 323 314 305 305 309 321 316 317 315 315 313 310 305 303 307 311 306 304 302 302 297 294 297
97 87 85 81 74 67 65 58 55 53 53 46 45 60 48 27 14 354 340 335 334 328 315 297 304 312 313 320 313 312 311 310 301 310 309 306 303 311 312 305 304 300 292
93 87 78 77 73 67 55 54 58 56 50 42 45 55 43 25 11 351 341 340 339 334 332 319 317 312 325 328 316 322 321 322 313 314 303 306 306 304 303 303 302 303 299
87 85 85 73 65 58 48 53 51 48 45 43 40 37 37 24 20 0 345 343 343 342 337 333 332 325 329 333 334 328 316 317 317 311 317 321 314 308 305 308 307 310 307
83 82 73 71 64 58 49 54 64 62 57 54 33 14 13 18 3 352 1 3 6 353 344 341 331 327 324 324 324 326 320 325 329 351 330 313 313 308 309 308 312 310 314
87 77 72 71 63 53 44 48 60 62 60 48 34 25 15 4 1 359 359 4 4 359 356 338 328 323 319 327 321 325 324 314 303 307 310 300 314 310 318 314 312 309 299
79 79 73 67 64 48 42 47 58 57 55 43 35 28 30 20 14 13 5 1 359 352 348 345 333 324 320 322 319 311 309 302 300 302 318 280 324 316 319 309 313 320 333
82 76 74 69 65 47 42 48 55 59 62 51 44 42 43 34 17 19 18 6 354 351 345 342 335 333 328 331 327 323 325 322 322 323 319 304 329 315 316 306 309 318 320
87 80 72 58 64 60 45 53 57 63 61 53 47 36 30 28 22 23 22 8 359 349 343 340 344 344 342 338 336 337 325 320 325 322 324 314 319 346 320 300 311 313 320